N5VKM Weather Reports


Display with metric or nautical units.
time (UTC)temp
F
wind
direction
speed
MPH
gust
MPH
rain 1hr
in
rain 24hr
in
rain mn
in
humidity
%
barometer
mb
20260906223544 98 332 0.0 0.0 0.00 0.00 0.00 46 1011.2
20260906223032 98 331 0.0 0.0 0.00 0.00 0.00 45 1011.3
20260906222543 98 331 0.0 0.0 0.00 0.00 0.00 45 1011.3
20260906222032 98 331 0.0 0.0 0.00 0.00 0.00 46 1011.3
20260906221559 98 333 0.0 0.0 0.00 0.00 0.00 46 1011.3
20260906221028 98 336 0.0 0.0 0.00 0.00 0.00 46 1011.2
20260906220542 98 333 0.0 0.0 0.00 0.00 0.00 46 1011.2
20260906220033 98 333 0.0 0.0 0.00 0.00 0.00 46 1011.3
20260906215540 98 331 0.0 0.0 0.00 0.00 0.00 46 1011.3
20260906215035 99 331 0.0 0.0 0.00 0.00 0.00 46 1011.3
20260906214543 99 330 0.0 0.0 0.00 0.00 0.00 46 1011.4
20260906214030 98 331 0.0 0.0 0.00 0.00 0.00 46 1011.3
20260906213546 99 333 0.0 0.0 0.00 0.00 0.00 46 1011.3
20260906213037 99 333 0.0 0.0 0.00 0.00 0.00 45 1011.3
20260906212549 98 333 0.0 0.0 0.00 0.00 0.00 46 1011.4
20260906212040 99 331 0.0 0.0 0.00 0.00 0.00 46 1011.6
20260906211528 99 333 0.0 0.0 0.00 0.00 0.00 45 1011.7
20260906211042 99 332 0.0 0.0 0.00 0.00 0.00 46 1011.7
20260906210550 99 331 0.0 0.0 0.00 0.00 0.00 45 1011.9
20260906210041 100 331 0.0 0.0 0.00 0.00 0.00 45 1011.9
20260906205548 99 332 0.0 0.0 0.00 0.00 0.00 45 1012.0
20260906205101 99 331 0.0 0.0 0.00 0.00 0.00 45 1012.1
20260906204537 99 332 0.0 0.0 0.00 0.00 0.00 45 1012.2
20260906204046 99 331 0.0 0.0 0.00 0.00 0.00 45 1012.2
20260906203534 99 329 0.0 0.0 0.00 0.00 0.00 45 1012.3
20260906203048 99 330 0.0 0.0 0.00 0.00 0.00 45 1012.3
20260906202655 99 331 0.0 0.0 0.00 0.00 0.00 46 1012.3
20260906202049 99 331 0.0 0.0 0.00 0.00 0.00 45 1012.5
20260906201536 99 330 0.0 0.0 0.00 0.00 0.00 45 1012.5
20260906201046 99 332 0.0 0.0 0.00 0.00 0.00 45 1012.6
20260906200541 99 330 0.0 0.0 0.00 0.00 0.00 45 1012.7
20260906200049 99 331 0.0 0.0 0.00 0.00 0.00 45 1012.7
20260906195558 98 330 0.0 0.0 0.00 0.00 0.00 46 1012.7
20260906195044 98 329 0.0 0.0 0.00 0.00 0.00 46 1012.7
20260906194537 98 331 0.0 0.0 0.00 0.00 0.00 46 1012.8
20260906194034 98 331 0.0 0.0 0.00 0.00 0.00 46 1012.8
20260906193544 99 331 0.0 0.0 0.00 0.00 0.00 45 1012.8
20260906193036 98 331 0.0 0.0 0.00 0.00 0.00 46 1012.9
20260906192555 98 333 0.0 0.0 0.00 0.00 0.00 47 1013.0
20260906192029 98 331 0.0 0.0 0.00 0.00 0.00 47 1013.1
20260906191541 98 332 0.0 0.0 0.00 0.00 0.00 47 1013.1
20260906191031 98 331 0.0 0.0 0.00 0.00 0.00 46 1013.2
20260906190540 98 329 0.0 0.0 0.00 0.00 0.00 46 1013.2
20260906190034 98 329 0.0 0.0 0.00 0.00 0.00 47 1013.4
20260906185545 98 331 0.0 0.0 0.00 0.00 0.00 46 1013.4
20260906185032 98 331 0.0 0.0 0.00 0.00 0.00 47 1013.4
20260906184529 98 331 0.0 0.0 0.00 0.00 0.00 47 1013.5
20260906184043 98 333 0.0 0.0 0.00 0.00 0.00 47 1013.5
20260906183550 97 331 0.0 0.0 0.00 0.00 0.00 48 1013.5
20260906183106 98 331 0.0 0.0 0.00 0.00 0.00 47 1013.6
20260906182538 98 331 0.0 0.0 0.00 0.00 0.00 48 1013.7
20260906182048 98 331 0.0 0.0 0.00 0.00 0.00 49 1013.7
20260906181536 97 331 0.0 0.0 0.00 0.00 0.00 49 1013.9
20260906181032 97 329 0.0 0.0 0.00 0.00 0.00 49 1014.1
20260906180539 97 331 0.0 0.0 0.00 0.00 0.00 49 1014.2
20260906180030 97 332 0.0 0.0 0.00 0.00 0.00 50 1014.1
20260906175544 97 331 0.0 0.0 0.00 0.00 0.00 50 1014.2
20260906175032 96 331 0.0 0.0 0.00 0.00 0.00 50 1014.3
20260906174541 96 330 0.0 0.0 0.00 0.00 0.00 51 1014.4
20260906174032 96 331 0.0 0.0 0.00 0.00 0.00 51 1014.4
20260906173540 96 332 0.0 0.0 0.00 0.00 0.00 50 1014.4
20260906173049 96 331 0.0 0.0 0.00 0.00 0.00 50 1014.5
20260906172536 96 331 0.0 0.0 0.00 0.00 0.00 51 1014.6
20260906172045 96 331 0.0 0.0 0.00 0.00 0.00 51 1014.6
20260906171536 96 331 0.0 0.0 0.00 0.00 0.00 51 1014.6
20260906171044 96 331 0.0 0.0 0.00 0.00 0.00 53 1014.7
20260906170532 96 333 0.0 0.0 0.00 0.00 0.00 53 1014.7
20260906170042 96 331 0.0 0.0 0.00 0.00 0.00 52 1014.8
20260906165528 96 331 0.0 0.0 0.00 0.00 0.00 53 1014.8
20260906165058 96 332 0.0 0.0 0.00 0.00 0.00 53 1014.9
20260906164534 95 331 0.0 0.0 0.00 0.00 0.00 54 1014.9
20260906164043 95 331 0.0 0.0 0.00 0.00 0.00 54 1015.0
20260906163530 94 332 0.0 0.0 0.00 0.00 0.00 54 1015.0
20260906163042 94 331 0.0 0.0 0.00 0.00 0.00 54 1014.9
20260906162529 94 331 0.0 0.0 0.00 0.00 0.00 55 1014.8
20260906162040 94 331 0.0 0.0 0.00 0.00 0.00 55 1014.9
20260906161549 94 331 0.0 0.0 0.00 0.00 0.00 55 1014.7
20260906161026 94 330 0.0 0.0 0.00 0.00 0.00 56 1014.7
20260906160556 93 330 0.0 0.0 0.00 0.00 0.00 56 1014.7
20260906160030 93 331 0.0 0.0 0.00 0.00 0.00 55 1014.7
20260906155539 93 331 0.0 0.0 0.00 0.00 0.00 56 1014.7
20260906155105 93 332 0.0 0.0 0.00 0.00 0.00 56 1014.8
20260906154551 93 334 0.0 0.0 0.00 0.00 0.00 56 1014.7
20260906154057 93 332 0.0 0.0 0.00 0.00 0.00 56 1014.7
20260906153549 93 331 0.0 0.0 0.00 0.00 0.00 56 1014.7
20260906153040 93 330 0.0 0.0 0.00 0.00 0.00 58 1014.7
20260906152530 92 331 0.0 0.0 0.00 0.00 0.00 59 1014.7
20260906152041 92 331 0.0 0.0 0.00 0.00 0.00 59 1014.6
20260906151529 92 331 0.0 0.0 0.00 0.00 0.00 61 1014.7
20260906151040 91 333 0.0 0.0 0.00 0.00 0.00 62 1014.7
20260906150528 91 331 0.0 0.0 0.00 0.00 0.00 63 1014.6
20260906150041 90 330 0.0 0.0 0.00 0.00 0.00 65 1014.6
20260906145528 90 331 0.0 0.0 0.00 0.00 0.00 67 1014.6
20260906145040 89 331 0.0 0.0 0.00 0.00 0.00 68 1014.6
20260906144526 88 330 0.0 0.0 0.00 0.00 0.00 70 1014.6
20260906144101 88 330 0.0 0.0 0.00 0.00 0.00 70 1014.5
20260906143549 87 331 0.0 0.0 0.00 0.00 0.00 73 1014.6
20260906143039 87 331 0.0 0.0 0.00 0.00 0.00 74 1014.6
20260906142529 86 331 0.0 0.0 0.00 0.00 0.00 76 1014.7
20260906142040 85 331 0.0 0.0 0.00 0.00 0.00 76 1014.8
20260906141528 85 331 0.0 0.0 0.00 0.00 0.00 77 1014.8
20260906141039 85 331 0.0 0.0 0.00 0.00 0.00 78 1014.8
20260906140527 84 331 0.0 0.0 0.00 0.00 0.00 79 1014.8
20260906140059 84 331 0.0 0.0 0.00 0.00 0.00 81 1014.7
20260906135549 83 331 0.0 0.0 0.00 0.00 0.00 81 1014.7
20260906135037 83 331 0.0 0.0 0.00 0.00 0.00 82 1014.7
20260906134529 82 331 0.0 0.0 0.00 0.00 0.00 83 1014.7
20260906134037 81 332 0.0 0.0 0.00 0.00 0.00 84 1014.7
20260906133545 81 332 0.0 0.0 0.00 0.00 0.00 84 1014.7
20260906133058 80 332 0.0 0.0 0.00 0.00 0.00 85 1014.8
20260906132607 80 332 0.0 0.0 0.00 0.00 0.00 85 1014.8
20260906132036 79 333 0.0 0.0 0.00 0.00 0.00 85 1014.8
20260906131549 79 332 0.0 0.0 0.00 0.00 0.00 85 1014.8
20260906131042 79 332 0.0 0.0 0.00 0.00 0.00 85 1014.7
20260906130539 78 333 0.0 0.0 0.00 0.00 0.00 85 1014.7
20260906130047 78 333 0.0 0.0 0.00 0.00 0.00 85 1014.6
20260906125534 78 333 0.0 0.0 0.00 0.00 0.00 85 1014.6
20260906125043 77 333 0.0 0.0 0.00 0.00 0.00 85 1014.6
20260906124551 77 333 0.0 0.0 0.00 0.00 0.00 85 1014.6
20260906124036 77 333 0.0 0.0 0.00 0.00 0.00 86 1014.5
20260906123609 77 333 0.0 0.0 0.00 0.00 0.00 86 1014.4
20260906123038 76 333 0.0 0.0 0.00 0.00 0.00 86 1014.4
20260906122545 76 333 0.0 0.0 0.00 0.00 0.00 86 1014.3
20260906122034 76 333 0.0 0.0 0.00 0.00 0.00 86 1014.4
20260906121530 76 333 0.0 0.0 0.00 0.00 0.00 86 1014.3
20260906121038 77 333 0.0 0.0 0.00 0.00 0.00 85 1014.3
20260906120548 77 333 0.0 0.0 0.00 0.00 0.00 85 1014.2
20260906120058 77 333 0.0 0.0 0.00 0.00 0.00 85 1014.1
20260906115548 77 333 0.0 0.0 0.00 0.00 0.00 85 1014.2
20260906115035 77 333 0.0 0.0 0.00 0.00 0.00 85 1014.1
20260906114545 77 333 0.0 0.0 0.00 0.00 0.00 85 1014.1
20260906114036 77 333 0.0 0.0 0.00 0.00 0.00 85 1014.1
20260906113544 77 333 0.0 0.0 0.00 0.00 0.00 85 1014.0
20260906113051 77 333 0.0 0.0 0.00 0.00 0.00 85 1014.1
20260906112545 77 334 0.0 0.0 0.00 0.00 0.00 85 1013.9
20260906112036 77 334 0.0 0.0 0.00 0.00 0.00 85 1013.9
20260906111542 77 334 0.0 0.0 0.00 0.00 0.00 85 1013.8
20260906111035 77 334 0.0 0.0 0.00 0.00 0.00 85 1013.9
20260906110528 77 334 0.0 0.0 0.00 0.00 0.00 85 1013.9
20260906110041 77 334 0.0 0.0 0.00 0.00 0.00 85 1013.8
20260906105533 77 334 0.0 0.0 0.00 0.00 0.00 85 1013.7
20260906105045 77 334 0.0 0.0 0.00 0.00 0.00 85 1013.6
20260906104533 78 334 0.0 0.0 0.00 0.00 0.00 85 1013.5
20260906104107 78 334 0.0 0.0 0.00 0.00 0.00 85 1013.4
20260906103537 78 334 0.0 0.0 0.00 0.00 0.00 84 1013.4
20260906103045 78 334 0.0 0.0 0.00 0.00 0.00 84 1013.4
20260906102536 78 334 0.0 0.0 0.00 0.00 0.00 84 1013.4
20260906102044 78 334 0.0 0.0 0.00 0.00 0.00 84 1013.3
20260906101530 78 334 0.0 0.0 0.00 0.00 0.00 84 1013.4
20260906101041 78 334 0.0 0.0 0.00 0.00 0.00 84 1013.4
20260906100552 78 334 0.0 0.0 0.00 0.00 0.00 84 1013.4
20260906100042 79 334 0.0 0.0 0.00 0.00 0.00 84 1013.4
20260906095536 79 334 0.0 0.0 0.00 0.00 0.00 84 1013.4
20260906095027 79 334 0.0 0.0 0.00 0.00 0.00 83 1013.4
20260906094543 79 334 0.0 0.0 0.00 0.00 0.00 83 1013.3
20260906094036 79 334 0.0 0.0 0.00 0.00 0.00 83 1013.2
20260906093547 79 334 0.0 0.0 0.00 0.00 0.00 83 1013.2
20260906093100 79 334 0.0 0.0 0.00 0.00 0.00 83 1013.1
20260906092609 79 334 0.0 0.0 0.00 0.00 0.00 83 1013.1
20260906092033 79 334 0.0 0.0 0.00 0.00 0.00 83 1013.1
20260906091545 79 334 0.0 0.0 0.00 0.00 0.00 83 1013.1
20260906091033 79 334 0.0 0.0 0.00 0.00 0.00 83 1013.1
20260906090559 79 334 0.0 0.0 0.00 0.00 0.00 83 1013.1
20260906090046 79 334 0.0 0.0 0.00 0.00 0.00 83 1013.0
20260906085553 79 334 0.0 0.0 0.00 0.00 0.00 82 1013.1
20260906085103 80 334 0.0 0.0 0.00 0.00 0.00 82 1013.0
20260906084550 80 333 0.0 0.0 0.00 0.00 0.00 82 1012.9
20260906084041 80 333 0.0 0.0 0.00 0.00 0.00 82 1012.8
20260906083550 80 334 0.0 0.0 0.00 0.00 0.00 82 1012.8
20260906083043 80 334 0.0 0.0 0.00 0.00 0.00 81 1012.8
20260906082540 80 334 0.0 0.0 0.00 0.00 0.00 81 1012.8
20260906082048 80 334 0.0 0.0 0.00 0.00 0.00 81 1012.8
20260906081535 80 334 0.0 0.0 0.00 0.00 0.00 81 1012.8
20260906081048 80 334 0.0 0.0 0.00 0.00 0.00 81 1012.8
20260906080536 80 334 0.0 0.0 0.00 0.00 0.00 80 1012.9
20260906080109 81 335 0.0 0.0 0.00 0.00 0.00 80 1012.9
20260906075535 81 334 0.0 0.0 0.00 0.00 0.00 80 1012.8
20260906075042 81 334 0.0 0.0 0.00 0.00 0.00 80 1012.7
20260906074550 81 335 0.0 0.0 0.00 0.00 0.00 79 1012.6
20260906074044 81 334 0.0 0.0 0.00 0.00 0.00 79 1012.7
20260906073531 81 334 0.0 0.0 0.00 0.00 0.00 79 1012.7
20260906073059 81 334 0.0 0.0 0.00 0.00 0.00 79 1012.8
20260906072550 81 334 0.0 0.0 0.00 0.00 0.00 79 1012.7
20260906072033 81 335 0.0 0.0 0.00 0.00 0.00 78 1012.8
20260906071543 81 334 0.0 0.0 0.00 0.00 0.00 78 1012.9
20260906071036 81 334 0.0 0.0 0.00 0.00 0.00 78 1012.9
20260906070543 81 334 0.0 0.0 0.00 0.00 0.00 78 1013.0
20260906070037 81 334 0.0 0.0 0.00 0.00 0.00 78 1013.1
20260906065543 82 334 0.0 0.0 0.00 0.00 0.00 77 1013.2
20260906065034 82 334 0.0 0.0 0.00 0.00 0.00 77 1013.2
20260906064541 82 334 0.0 0.0 0.00 0.00 0.00 77 1013.2
20260906064035 82 334 0.0 0.0 0.00 0.00 0.00 77 1013.3
20260906063531 82 334 0.0 0.0 0.00 0.00 0.00 77 1013.3
20260906063040 82 333 0.0 0.0 0.00 0.00 0.00 77 1013.2
20260906062553 82 334 0.0 0.0 0.00 0.00 0.00 77 1013.1
20260906062058 82 333 0.0 0.0 0.00 0.00 0.00 77 1013.1
20260906061533 82 334 0.0 0.0 0.00 0.00 0.00 76 1013.0
20260906061045 82 334 0.0 0.0 0.00 0.00 0.00 76 1012.9
20260906060535 82 333 0.0 0.0 0.00 0.00 0.00 76 1012.9
20260906060044 83 333 0.0 0.0 0.00 0.00 0.00 76 1013.0
20260906055532 83 333 0.0 0.0 0.00 0.00 0.00 76 1013.1
20260906055042 83 333 0.0 0.0 0.00 0.00 0.00 76 1013.2
20260906054534 83 333 0.0 0.0 0.00 0.00 0.00 75 1013.2
20260906054050 83 333 0.0 0.0 0.00 0.00 0.00 75 1013.2
20260906053547 83 333 0.0 0.0 0.00 0.00 0.00 75 1013.2
20260906053036 83 334 0.0 0.0 0.00 0.00 0.00 75 1013.1
20260906052550 83 334 0.0 0.0 0.00 0.00 0.00 75 1013.1
20260906052056 83 334 0.0 0.0 0.00 0.00 0.00 75 1013.1
20260906051542 83 334 0.0 0.0 0.00 0.00 0.00 74 1013.0
20260906051049 84 334 0.0 0.0 0.00 0.00 0.00 74 1013.0
20260906050536 84 334 0.0 0.0 0.00 0.00 0.00 74 1013.1
20260906050106 84 334 0.0 0.0 0.00 0.00 0.00 74 1013.0
20260906045533 84 335 0.0 0.0 0.00 0.00 0.00 74 1013.0
20260906045040 84 334 0.0 0.0 0.00 0.00 0.00 73 1013.1
20260906044533 84 334 0.0 0.0 0.00 0.00 0.00 73 1013.2
20260906044104 84 334 0.0 0.0 0.00 0.00 0.00 73 1013.3
20260906043531 84 333 0.0 0.0 0.00 0.00 0.00 72 1013.3
20260906043040 84 333 0.0 0.0 0.00 0.00 0.00 72 1013.3
20260906042530 84 333 0.0 0.0 0.00 0.00 0.00 72 1013.2
20260906042057 84 334 0.0 0.0 0.00 0.00 0.00 72 1013.0
20260906041548 85 333 0.0 0.0 0.00 0.00 0.00 71 1013.1
20260906041102 85 333 0.0 0.0 0.00 0.00 0.00 71 1013.1
20260906040548 85 333 0.0 0.0 0.00 0.00 0.00 70 1013.0
20260906040036 85 333 0.0 0.0 0.00 0.00 0.00 70 1013.0
20260906035543 85 333 0.0 0.0 0.00 0.00 0.00 69 1013.1
20260906035040 85 333 0.0 0.0 0.00 0.00 0.00 69 1013.0
20260906034527 86 334 0.0 0.0 0.00 0.00 0.00 68 1013.1
20260906034042 86 332 0.0 0.0 0.00 0.00 0.00 68 1013.1
20260906033529 86 334 0.0 0.0 0.00 0.00 0.00 67 1013.0
20260906033041 86 334 0.0 0.0 0.00 0.00 0.00 66 1013.0
20260906032528 86 334 0.0 0.0 0.00 0.00 0.00 66 1013.0
20260906032039 86 334 0.0 0.0 0.00 0.00 0.00 66 1013.1
20260906031548 86 334 0.0 0.0 0.00 0.00 0.00 65 1013.1
20260906031035 87 334 0.0 0.0 0.00 0.00 0.00 65 1013.1
20260906030545 87 334 0.0 0.0 0.00 0.00 0.00 65 1013.1
20260906030033 87 333 0.0 0.0 0.00 0.00 0.00 64 1013.2
20260906025548 87 333 0.0 0.0 0.00 0.00 0.00 64 1013.1
20260906025034 87 333 0.0 0.0 0.00 0.00 0.00 64 1013.1
20260906024543 87 333 0.0 0.0 0.00 0.00 0.00 63 1013.1
20260906024036 87 333 0.0 0.0 0.00 0.00 0.00 63 1012.9
20260906023530 87 333 0.0 0.0 0.00 0.00 0.00 63 1012.8
20260906023054 88 333 0.0 0.0 0.00 0.00 0.00 63 1012.7
20260906022540 88 333 0.0 0.0 0.00 0.00 0.00 62 1012.6
20260906022035 88 333 0.0 0.0 0.00 0.00 0.00 62 1012.6
20260906021542 88 335 0.0 0.0 0.00 0.00 0.00 62 1012.4
20260906021034 88 333 0.0 0.0 0.00 0.00 0.00 61 1012.3
20260906020547 89 333 0.0 0.0 0.00 0.00 0.00 61 1012.3
20260906020033 89 333 0.0 0.0 0.00 0.00 0.00 61 1012.3
20260906015546 89 333 0.0 0.0 0.00 0.00 0.00 61 1012.3
20260906015057 89 333 0.0 0.0 0.00 0.00 0.00 60 1012.3
20260906014559 90 333 0.0 0.0 0.00 0.00 0.00 60 1012.1
20260906014108 90 333 0.0 0.0 0.00 0.00 0.00 59 1012.1
20260906013558 90 333 0.0 0.0 0.00 0.00 0.00 59 1012.0
20260906013030 90 333 0.0 0.0 0.00 0.00 0.00 58 1012.0
20260906012544 91 333 0.0 0.0 0.00 0.00 0.00 58 1012.0
20260906012036 91 333 0.0 0.0 0.00 0.00 0.00 57 1011.9
20260906011544 92 332 0.0 0.0 0.00 0.00 0.00 57 1011.9
20260906011031 92 333 0.0 0.0 0.00 0.00 0.00 56 1011.7
20260906010540 93 332 0.0 0.0 0.00 0.00 0.00 54 1011.6
20260906010048 94 332 0.0 0.0 0.00 0.00 0.00 51 1011.5
20260906005559 95 333 0.0 0.0 0.00 0.00 0.00 47 1011.3
20260906005046 95 333 0.0 0.0 0.00 0.00 0.00 47 1011.1
20260906004536 95 333 0.0 0.0 0.00 0.00 0.00 46 1011.2
20260906004044 95 332 0.0 0.0 0.00 0.00 0.00 46 1011.1
20260906003532 96 332 0.0 0.0 0.00 0.00 0.00 47 1011.1
20260906003046 96 333 0.0 0.0 0.00 0.00 0.00 46 1011.1
20260906002552 96 333 0.0 0.0 0.00 0.00 0.00 46 1011.2
20260906002040 96 332 0.0 0.0 0.00 0.00 0.00 46 1011.1
20260906001528 97 331 0.0 0.0 0.00 0.00 0.00 46 1011.1
20260906001041 97 332 0.0 0.0 0.00 0.00 0.00 46 1011.1
20260906000529 97 333 0.0 0.0 0.00 0.00 0.00 46 1011.1
20260905235534 97 332 0.0 0.0 0.00 0.00 0.00 45 1011.1
20260905235040 97 332 0.0 0.0 0.00 0.00 0.00 45 1011.0
20260905234533 97 332 0.0 0.0 0.00 0.00 0.00 45 1011.0
20260905234041 98 332 0.0 0.0 0.00 0.00 0.00 45 1010.9
20260905233549 98 332 0.0 0.0 0.00 0.00 0.00 44 1010.9
20260905233037 98 332 0.0 0.0 0.00 0.00 0.00 45 1010.9
20260905232546 98 332 0.0 0.0 0.00 0.00 0.00 44 1010.8
20260905232036 98 333 0.0 0.0 0.00 0.00 0.00 44 1010.9
20260905231530 98 333 0.0 0.0 0.00 0.00 0.00 44 1010.9
20260905231111 98 333 0.0 0.0 0.00 0.00 0.00 44 1011.0
20260905230539 98 331 0.0 0.0 0.00 0.00 0.00 44 1011.1
20260905230049 98 331 0.0 0.0 0.00 0.00 0.00 44 1011.0
20260905225542 98 331 0.0 0.0 0.00 0.00 0.00 44 1010.9
20260905225036 99 331 0.0 0.0 0.00 0.00 0.00 44 1010.9
20260905224533 99 331 0.0 0.0 0.00 0.00 0.00 43 1010.9
20260905224041 99 332 0.0 0.0 0.00 0.00 0.00 43 1010.9